User: anonymous   Login
Location: Holbach
(51.5399°N, 10.6036°E)
Time: 10:07:18
(UTC+00:00)
Language:

Cosmos 1092 Rocket - Orbit

View from above orbital plane
View from above orbital plane
View from above satellite
View from above satellite

Ground track
Ground track

The orbit data is extracted from the following two-line orbital elements,

1 11327U 79030B   21170.84741769  .00000049  00000-0  34433-4 0  9994
2 11327  82.9501 289.1111 0028611  44.6994  67.5054 13.76965545120346
Epoch (UTC): 19 June 2021 20:20:16
Eccentricity: 0.0028611
inclination: 82.9501°
perigee height: 953 km
apogee height: 996 km
right ascension of ascending node: 289.1111°
argument of perigee: 44.6994°
revolutions per day: 13.76965545
mean anomaly at epoch: 67.5054°
orbit number at epoch: 12034

The dashed part of the orbit path shows where the satellite is in the earth's shadow,  

DLR